This demonstration page uses our WeatherBlox Daily Observations layout. Learn more.

41.55636, -103.73856

Hourly Observations for May 18, 2018

Temp ( °F °C ) Dew Point ( °F °C ) Humidity (%) Winds ( mph kmh ) Pressure ( in mb ) Visibility ( mi km ) Precip ( " mm )
12:53 am 00:53 Mostly Cloudy 57 13.9 55 12.8 93 93 NE 17 28 29.71 1006 10 16.09344 0.001 0.001
1:26 am 01:26 Clear with Nearby Thunderstorms 57 13.9 55 12.8 93 93 SE 9 15 29.8 1009 10 16.09344 0 0
1:41 am 01:41 Clear 57 13.9 55 12.8 93 93 SSE 6 9 29.8 1009 10 16.09344 0 0
1:53 am 01:53 Clear 57 13.9 54 12.2 90 90 E 5 7 29.71 1006 10 16.09344 0 0
2:53 am 02:53 Clear 56 13.3 55 12.8 97 97 ESE 9 15 29.74 1007 10 16.09344 0 0
3:53 am 03:53 Clear 55 12.8 54 12.2 96 96 ESE 10 17 29.74 1007 10 16.09344 0 0
4:53 am 04:53 Mostly Cloudy 51 10.6 51 10.6 100 100 NW 7 11 29.8 1009 10 16.09344 0 0
5:20 am 05:20 Partly Cloudy 52 11 52 11 100 100 N 7 11 29.88 1012 10 16.09344 0 0
5:53 am 05:53 Mostly Cloudy 52 11.1 52 11.1 100 100 Calm 29.8 1009 10 16.09344 0 0
6:21 am 06:21 Cloudy 55 12.8 54 12.2 96 96 Calm 29.85 1011 10 16.09344 0 0
6:43 am 06:43 Cloudy 54 12.2 54 12.2 100 100 NW 3 6 29.85 1011 10 16.09344 0 0
6:53 am 06:53 Cloudy 55 12.8 54 12.2 96 96 Calm 29.83 1010 10 16.09344 0 0
7:53 am 07:53 Cloudy 56 13.3 54 12.2 93 93 E 7 11 29.85 1011 10 16.09344 0 0
8:31 am 08:31 Cloudy 57 13.9 54 12.2 90 90 E 6 9 29.85 1011 10 16.09344 0 0
8:53 am 08:53 Cloudy 58 14.4 54 12.2 87 87 E 5 7 29.85 1011 10 16.09344 0 0
9:53 am 09:53 Mostly Cloudy 61 16.1 55 12.8 81 81 SE 5 7 29.85 1011 10 16.09344 0 0
10:50 am 10:50 Mostly Cloudy 63 17 54 12 73 73 WSW 3 6 29.83 1010 10 16.09344 0 0
10:53 am 10:53 Mostly Cloudy 63 17.2 54 12.2 73 73 Calm 29.85 1011 10 16.09344 0 0
11:06 am 11:06 Mostly Cloudy 64 18 55 13 73 73 NNE 3 6 29.8 1009 10 16.09344 0 0
11:53 am 11:53 Partly Cloudy 69 20.6 55 12.8 61 61 N 7 11 29.83 1010 10 16.09344 0 0
12:53 pm 12:53 Cloudy 70 21.1 55 12.8 59 59 N 3 6 29.83 1010 10 16.09344 0 0
1:53 pm 13:53 Partly Cloudy 71 21.7 56 13.3 59 59 ESE 9 15 29.8 1009 10 16.09344 0 0
2:53 pm 14:53 Mostly Cloudy 69 20.6 55 12.8 61 61 N 5 7 29.8 1009 10 16.09344 0 0
3:53 pm 15:53 Mostly Cloudy 71 21.7 56 13.3 59 59 E 10 17 29.8 1009 10 16.09344 0 0
4:53 pm 16:53 Mostly Cloudy 68 20 55 12.8 63 63 ESE 14 22 29.83 1010 10 16.09344 0 0
5:53 pm 17:53 Cloudy 67 19.4 54 12.2 63 63 SE 10 17 29.83 1010 10 16.09344 0 0
6:53 pm 18:53 Cloudy 66 18.9 56 13.3 70 70 SSE 6 9 29.83 1010 10 16.09344 0 0
7:53 pm 19:53 Mostly Cloudy 64 17.8 57 13.9 78 78 Calm 29.83 1010 10 16.09344 0 0
8:53 pm 20:53 Cloudy 62 16.7 59 15 90 90 NE 5 7 29.83 1010 10 16.09344 0 0
9:53 pm 21:53 Cloudy 62 16.7 57 13.9 84 84 NNE 6 9 29.83 1010 10 16.09344 0 0
10:34 pm 22:34 Cloudy with Thunderstorms 63 17 57 14 83 83 ENE 10 17 29.8 1009 10 16.09344 0 0
10:53 pm 22:53 Cloudy with Heavy Thunderstorms 57 13.9 57 13.9 100 100 ENE 17 28 29.85 1011 2 3.218688 0.14 3.556
10:57 pm 22:57 Cloudy with Heavy Thunderstorms 58 14.4 57 13.9 97 97 ENE 15 24 29.83 1010 1.75 2.816352 0.09 2.286
11:12 pm 23:12 Cloudy with Heavy Thunderstorms 55 13 N/A N/A N 16 26 29.88 1012 2 3.218688 0 0
11:20 pm 23:20 Cloudy with Heavy Thunderstorms 54 12 N/A N/A N 25 41 29.88 1012 4 6.437376 0 0
11:35 pm 23:35 Cloudy with Heavy Thunderstorms 54 12 N/A N/A N 32 52 29.88 1012 1.75 2.816352 0.51 12.954
11:40 pm 23:40 Cloudy with Nearby Thunderstorms 54 12 N/A N/A N 35 56 29.88 1012 1.5 2.414016 0.59 14.986
11:44 pm 23:44 Cloudy with Heavy Thunderstorms 52 11 N/A N/A N 33 54 29.91 1013 1.25 2.01168 0 0
11:53 pm 23:53 Cloudy with Thunderstorms 54 12 N/A N/A N 25 41 29.88 1012 2.5 4.02336 0.75 19.05

Powered by AerisWeather